Probability
0 0 0 0 0 0 0 0 0 3 3 0 0 3 0 0 3 3 10 16 16 13 13 16 19 29 35 35 35 32 32 39 35 39 39 32 32 29 32 26 29 35 32 32
0 0 0 0 0 0 0 0 3 3 0 0 0 0 0 3 3 6 10 13 13 10 10 19 26 39 29 35 39 35 32 32 29 32 35 26 35 29 29 23 29 29 26 29
0 0 0 0 0 0 0 0 3 0 0 3 0 0 0 3 3 3 10 13 13 13 10 23 26 42 42 39 35 39 35 35 35 32 32 35 32 32 35 35 35 26 32 29
0 0 0 0 0 0 0 0 3 3 3 0 0 0 0 0 0 0 6 13 16 16 16 16 26 35 45 45 39 39 39 35 35 32 35 32 29 29 26 26 29 26 29 29
0 0 0 0 0 0 0 0 0 0 0 0 0 0 0 0 3 3 6 10 19 16 19 23 23 39 39 45 42 45 35 29 26 29 32 26 26 26 26 26 26 26 23 23
0 0 0 0 0 0 0 0 0 0 0 0 0 3 0 0 0 3 6 10 16 16 16 23 32 29 35 35 32 39 39 29 29 29 29 29 26 26 26 26 29 23 26 29
0 0 0 0 0 0 0 0 0 0 0 0 0 0 0 0 0 3 6 16 16 16 23 23 35 26 29 26 35 39 35 32 26 26 26 26 26 29 26 26 29 29 29 26
0 0 0 0 0 0 0 0 0 0 0 0 0 0 0 0 3 3 6 10 19 19 16 26 32 32 23 19 29 35 39 39 32 23 26 26 23 23 23 23 26 26 23 23
0 0 0 0 0 0 0 0 0 0 0 0 0 0 3 3 6 10 19 16 16 16 23 29 35 29 26 23 29 32 39 32 26 23 32 29 26 29 26 23 19 16 19 19
0 0 0 0 0 0 0 0 0 0 0 0 0 0 3 10 6 19 19 19 13 23 26 29 32 32 26 26 32 32 32 32 29 23 29 26 23 19 19 23 16 13 13 16
0 0 0 0 0 0 0 0 0 0 0 0 0 0 0 10 13 13 19 16 13 23 19 32 32 29 23 26 35 32 39 29 29 29 26 26 23 19 19 16 13 10 13 16
0 0 0 0 0 0 0 0 0 0 0 0 0 3 3 10 13 16 16 13 16 19 23 35 42 39 39 35 35 29 32 35 32 32 29 23 23 19 19 19 13 13 13 13
0 0 0 0 0 0 0 0 0 0 0 0 0 3 6 13 13 13 16 19 19 19 26 39 42 35 32 32 35 32 35 39 39 32 29 26 23 23 19 19 13 16 16 19
0 0 0 0 0 0 0 0 0 0 0 0 0 3 16 13 10 16 16 19 23 23 26 26 29 32 26 32 35 32 32 35 32 35 29 29 29 26 19 19 16 16 16 16
0 0 0 0 0 0 0 0 0 0 0 0 3 10 13 6 6 10 19 19 19 32 29 26 26 23 16 23 29 32 29 29 32 35 35 32 29 26 23 19 19 16 19 23
0 0 0 0 0 0 0 0 0 0 0 0 3 10 6 6 6 16 19 16 26 32 35 26 19 23 23 23 26 29 32 29 32 29 32 26 23 26 26 29 26 23 26 26
0 0 0 0 0 0 0 0 0 0 0 0 3 6 6 10 13 13 16 16 19 26 29 26 19 26 23 16 23 29 26 26 19 23 23 23 23 26 26 23 23 26 19 23
0 0 0 0 0 0 0 0 0 0 0 3 6 10 10 16 16 13 13 16 16 23 23 19 19 23 23 23 26 26 26 23 23 23 26 26 19 23 23 19 16 19 19 19
0 0 0 0 0 0 0 3 3 0 0 6 6 13 13 10 13 13 13 19 19 13 19 23 26 23 19 26 23 23 26 26 26 19 23 23 16 16 19 19 19 19 19 19
0 0 0 0 0 0 0 3 3 0 0 3 3 6 3 6 6 6 16 13 13 16 19 23 23 26 26 19 23 19 23 26 23 23 23 16 16 16 16 16 19 19 16 16
0 0 0 0 0 0 0 3 3 0 0 0 6 10 6 10 10 13 10 16 16 19 19 29 26 23 23 19 19 19 16 16 23 23 23 19 19 16 16 16 13 13 13 13
0 0 0 0 0 0 3 10 0 0 0 3 10 13 6 13 6 6 16 13 13 13 23 23 23 23 19 26 23 16 16 13 16 16 10 10 13 16 13 10 13 10 10 13
0 0 0 0 0 0 0 0 0 0 6 6 13 6 6 13 13 13 13 16 16 19 16 13 16 16 13 13 19 16 16 16 13 13 16 10 10 13 10 10 6 6 10 10
0 0 0 0 0 0 0 0 0 10 10 13 13 13 16 13 10 10 13 16 16 16 13 13 13 16 16 13 16 19 16 16 13 13 16 16 13 13 10 10 10 6 6 10
0 3 0 0 0 0 0 3 3 10 13 13 13 13 13 10 10 10 10 10 13 13 10 13 13 13 13 13 13 13 13 13 10 10 10 16 13 10 10 10 10 10 6 6
0 0 3 0 0 0 0 0 0 3 10 10 13 16 10 10 10 6 10 6 10 13 13 6 10 10 10 10 10 10 10 16 13 10 10 13 13 10 6 6 3 0 0 0
Height
5923 5925 5926 5927 5927 5928 5929 5929 5929 5928 5929 5929 5929 5929 5928 5927 5927 5926 5925 5925 5924 5923 5922 5921 5919 5918 5916 5915 5914 5912 5911 5910 5908 5907 5905 5903 5902 5900 5899 5898 5896 5894 5893 5891
5922 5923 5924 5925 5925 5926 5927 5927 5927 5927 5928 5928 5927 5927 5927 5927 5926 5925 5925 5925 5924 5923 5922 5921 5919 5918 5916 5915 5913 5912 5910 5909 5907 5906 5905 5903 5902 5900 5899 5897 5896 5894 5892 5890
5918 5921 5921 5922 5922 5923 5924 5924 5925 5926 5926 5926 5926 5926 5925 5925 5924 5924 5923 5923 5923 5922 5921 5920 5918 5917 5916 5914 5912 5911 5909 5908 5906 5905 5903 5902 5900 5899 5897 5896 5894 5893 5891 5889
5915 5917 5918 5919 5920 5921 5922 5923 5923 5924 5924 5924 5925 5924 5924 5923 5922 5922 5922 5921 5920 5920 5920 5919 5917 5915 5914 5913 5911 5910 5908 5906 5905 5903 5902 5900 5899 5897 5895 5894 5893 5891 5889 5887
5912 5914 5915 5916 5918 5919 5919 5920 5921 5921 5922 5922 5922 5922 5922 5920 5920 5920 5920 5920 5919 5919 5918 5917 5915 5914 5913 5911 5910 5908 5906 5905 5903 5901 5900 5898 5897 5895 5893 5892 5890 5889 5887 5885
5909 5910 5912 5914 5915 5916 5916 5917 5918 5918 5919 5919 5920 5920 5919 5918 5918 5918 5918 5918 5917 5917 5915 5914 5913 5912 5911 5910 5908 5906 5905 5903 5901 5900 5898 5896 5894 5892 5891 5890 5888 5886 5884 5883
5905 5907 5909 5910 5912 5913 5914 5915 5915 5915 5915 5916 5916 5916 5917 5916 5915 5915 5916 5916 5915 5914 5913 5912 5911 5910 5908 5907 5905 5904 5903 5901 5898 5897 5896 5894 5892 5890 5888 5886 5885 5883 5881 5879
5901 5904 5906 5907 5908 5909 5910 5912 5912 5912 5912 5912 5912 5912 5914 5913 5912 5912 5912 5912 5912 5911 5909 5908 5907 5906 5905 5904 5902 5900 5899 5898 5896 5894 5893 5891 5889 5886 5885 5883 5881 5879 5878 5876
5897 5900 5903 5904 5905 5906 5907 5908 5909 5909 5908 5909 5909 5909 5910 5909 5909 5909 5909 5908 5908 5907 5906 5905 5904 5903 5902 5900 5899 5897 5895 5894 5892 5891 5889 5887 5885 5883 5881 5879 5877 5875 5873 5872
5893 5896 5898 5900 5901 5902 5903 5904 5904 5904 5904 5904 5905 5905 5906 5905 5905 5905 5904 5904 5903 5903 5903 5901 5900 5899 5898 5897 5895 5892 5891 5889 5888 5886 5884 5883 5881 5879 5877 5875 5873 5871 5869 5867
5888 5891 5893 5895 5896 5898 5899 5899 5899 5900 5900 5900 5900 5903 5902 5902 5902 5902 5901 5900 5900 5900 5899 5897 5896 5895 5893 5892 5890 5888 5886 5884 5882 5881 5879 5877 5876 5874 5872 5870 5868 5866 5864 5862
5883 5885 5887 5890 5892 5893 5894 5894 5895 5896 5896 5896 5896 5899 5898 5897 5897 5897 5896 5896 5896 5895 5895 5894 5892 5890 5889 5887 5886 5884 5881 5879 5877 5876 5874 5872 5870 5868 5866 5864 5862 5860 5858 5856
5878 5880 5882 5884 5887 5888 5889 5889 5890 5891 5891 5891 5891 5894 5893 5892 5892 5892 5891 5891 5891 5891 5890 5889 5887 5885 5884 5882 5880 5879 5877 5874 5872 5870 5868 5866 5864 5862 5860 5858 5856 5854 5852 5850
5872 5874 5876 5878 5880 5881 5883 5884 5885 5885 5885 5886 5886 5887 5888 5887 5887 5887 5887 5886 5886 5885 5885 5884 5883 5881 5879 5877 5875 5873 5871 5869 5866 5864 5862 5860 5858 5856 5853 5851 5849 5847 5845 5843
5866 5868 5869 5871 5873 5875 5876 5877 5879 5880 5880 5881 5881 5881 5882 5882 5882 5882 5881 5880 5880 5879 5879 5878 5877 5875 5873 5871 5869 5867 5864 5862 5860 5858 5855 5853 5851 5849 5846 5844 5842 5840 5837 5835
5860 5862 5863 5865 5867 5868 5869 5871 5872 5873 5874 5874 5875 5875 5876 5876 5876 5875 5875 5875 5873 5872 5871 5870 5869 5868 5866 5864 5862 5860 5858 5856 5853 5850 5848 5845 5843 5841 5839 5837 5835 5832 5830 5828
5854 5856 5857 5859 5860 5861 5862 5864 5865 5866 5867 5868 5868 5870 5869 5869 5870 5869 5869 5868 5867 5865 5863 5863 5861 5860 5859 5857 5855 5853 5851 5849 5846 5843 5840 5838 5836 5834 5831 5829 5827 5824 5822 5820
5848 5849 5850 5852 5854 5854 5857 5857 5858 5859 5860 5861 5861 5862 5862 5862 5863 5862 5862 5861 5860 5858 5856 5855 5854 5853 5851 5850 5848 5846 5844 5842 5839 5836 5833 5831 5829 5826 5824 5821 5819 5816 5814 5811
5840 5842 5843 5844 5845 5846 5849 5849 5851 5852 5852 5853 5854 5854 5855 5855 5854 5854 5854 5853 5852 5851 5849 5847 5846 5845 5844 5843 5841 5839 5837 5834 5831 5828 5826 5823 5821 5818 5815 5813 5810 5808 5805 5803
5833 5834 5836 5836 5838 5839 5842 5843 5843 5844 5844 5846 5846 5847 5847 5847 5847 5847 5845 5843 5841 5841 5841 5840 5839 5838 5837 5835 5833 5831 5829 5826 5823 5820 5817 5815 5813 5810 5807 5804 5802 5799 5797 5795
5827 5827 5828 5829 5830 5831 5834 5835 5836 5837 5838 5838 5838 5838 5839 5839 5839 5839 5837 5835 5832 5832 5832 5831 5831 5829 5828 5827 5825 5822 5820 5817 5815 5812 5809 5807 5804 5802 5799 5796 5793 5791 5788 5786
5819 5820 5821 5822 5823 5826 5827 5828 5829 5829 5829 5829 5829 5830 5830 5830 5830 5829 5828 5827 5825 5824 5823 5822 5821 5820 5819 5817 5815 5813 5811 5808 5806 5803 5800 5798 5795 5792 5790 5787 5784 5782 5780 5777
5811 5813 5813 5815 5817 5818 5818 5820 5820 5820 5821 5821 5821 5822 5821 5821 5821 5820 5819 5817 5816 5815 5814 5813 5812 5811 5809 5807 5805 5803 5801 5799 5796 5794 5791 5788 5785 5783 5780 5778 5775 5773 5770 5768
5804 5805 5806 5806 5807 5808 5809 5810 5811 5812 5812 5812 5812 5812 5812 5812 5811 5810 5809 5808 5807 5806 5804 5803 5802 5801 5799 5797 5795 5793 5790 5788 5786 5783 5781 5778 5776 5773 5771 5768 5766 5763 5761 5758
5796 5797 5798 5798 5799 5800 5800 5801 5802 5803 5803 5804 5803 5803 5802 5802 5801 5800 5800 5799 5797 5796 5795 5794 5792 5790 5788 5786 5784 5782 5780 5778 5776 5773 5771 5768 5766 5763 5761 5759 5756 5754 5751 5749
5788 5789 5790 5790 5791 5792 5792 5793 5794 5794 5794 5794 5794 5794 5793 5792 5791 5790 5790 5789 5788 5787 5785 5784 5782 5780 5778 5776 5774 5772 5770 5768 5765 5763 5761 5758 5755 5753 5751 5749 5746 5744 5742 5739
Wind_Speed
13 12 11 8 6 3 3 4 3 3 3 5 6 6 7 7 8 9 7 8 7 8 9 10 10 11 11 10 10 10 11 11 11 11 11 11 11 10 10 11 11 11 12 12
14 13 11 10 7 6 6 6 5 3 4 6 7 6 6 5 7 7 8 7 7 7 8 9 9 10 10 10 10 10 10 11 11 10 10 10 11 11 11 12 12 12 12 13
14 12 13 12 11 10 9 8 7 6 6 8 8 8 7 7 9 8 7 8 7 7 7 8 9 10 10 10 10 10 10 11 11 11 10 10 11 12 12 12 12 12 12 13
16 14 14 12 12 12 11 11 10 8 8 9 10 10 8 9 9 9 9 9 8 7 7 9 10 10 10 10 10 10 10 11 11 12 12 12 12 12 12 12 12 13 13 13
16 15 14 13 12 11 11 12 12 10 10 10 10 11 9 9 10 10 10 9 9 9 9 9 10 10 11 11 10 11 11 12 12 13 13 14 14 13 13 13 13 13 14 14
16 15 15 13 11 12 12 13 13 13 12 11 11 11 10 10 11 10 10 11 11 11 9 10 11 11 12 12 12 12 12 13 13 13 14 14 14 13 13 14 14 14 14 14
17 16 16 14 13 12 12 12 12 13 13 12 12 13 11 11 11 11 11 12 13 13 12 13 13 11 12 12 12 13 13 13 13 13 13 14 14 14 15 15 15 15 15 15
19 18 16 16 14 13 13 13 13 13 13 14 14 14 12 13 13 12 12 13 13 14 15 15 14 13 13 13 13 13 14 15 15 15 15 15 15 15 16 17 16 16 16 17
19 18 16 16 15 15 15 16 15 16 16 16 14 15 13 13 14 13 14 15 16 15 16 15 14 14 14 14 14 14 15 16 16 16 16 16 16 17 17 17 17 17 17 17
18 18 18 17 17 17 16 16 17 18 18 18 16 16 14 13 13 14 15 16 16 17 17 15 15 15 15 16 16 17 18 18 18 18 18 18 18 18 18 18 17 18 18 19
20 20 20 20 20 19 18 18 18 19 19 19 19 17 16 16 16 16 17 17 19 19 17 17 16 16 17 17 19 19 19 19 19 19 19 20 20 20 20 20 20 20 20 20
21 23 23 22 21 21 20 19 19 20 20 21 22 20 17 18 19 18 18 19 19 19 19 19 19 18 18 19 20 21 21 21 21 22 21 22 22 21 22 22 22 22 22 22
22 25 25 24 24 23 23 22 21 20 20 21 22 20 19 20 20 20 20 20 20 21 21 20 20 20 20 21 21 22 22 23 23 23 24 24 24 23 24 24 24 23 23 23
24 25 26 26 25 26 25 24 23 22 22 23 23 23 22 22 22 22 22 22 22 23 23 23 21 22 23 22 23 23 24 24 24 25 26 25 25 25 25 25 26 25 25 25
25 26 26 26 26 27 27 26 25 25 25 25 25 25 25 25 24 24 25 25 24 25 25 26 25 24 24 25 25 25 26 26 27 27 27 26 26 26 26 27 27 27 27 26
26 26 26 27 27 27 27 26 26 26 26 27 26 26 25 26 26 27 27 27 27 27 26 26 27 27 27 27 27 27 27 28 28 27 26 27 27 27 27 28 28 28 28 28
28 28 27 28 28 27 29 29 29 28 28 28 28 28 27 28 28 28 28 29 28 28 27 27 28 29 28 28 28 28 29 29 28 28 27 27 28 28 28 28 28 28 29 29
30 30 29 29 28 29 28 28 29 31 31 30 29 28 29 29 30 30 30 31 31 31 30 30 30 30 29 29 30 30 31 31 30 29 30 30 29 29 28 28 29 29 30 30
29 29 30 30 30 28 27 27 28 30 33 32 32 30 30 30 30 31 32 34 34 33 33 32 31 31 30 30 31 32 32 31 31 31 30 29 29 29 29 30 30 30 30 30
28 29 30 29 29 29 27 26 27 30 33 32 32 31 30 31 32 32 34 34 35 34 33 33 33 32 31 31 33 33 33 33 32 32 30 30 30 30 30 31 31 30 30 30
28 28 29 28 29 29 29 27 27 30 31 31 32 32 32 33 34 35 35 33 33 32 33 33 33 33 33 34 34 34 34 33 33 32 32 32 31 32 32 32 31 31 31 30
29 28 29 29 29 29 29 28 29 29 29 30 31 32 32 33 34 35 35 35 34 32 33 33 34 35 36 35 35 35 34 34 34 34 34 33 33 33 32 32 32 32 32 31
30 30 30 30 30 29 28 28 28 29 30 30 31 31 32 33 33 34 35 35 34 34 34 34 34 35 36 37 37 37 36 36 36 35 35 35 35 33 32 33 33 32 31 31
29 30 31 31 31 30 30 30 30 30 30 30 31 30 32 33 33 33 32 33 34 36 35 35 35 36 36 36 37 37 36 36 36 36 35 35 35 34 34 33 33 33 33 32
30 31 31 32 31 31 31 31 31 31 31 31 31 31 31 32 33 33 33 33 34 35 36 36 36 37 37 36 36 36 37 36 36 36 35 35 35 35 34 33 33 33 33 33
30 30 31 32 32 32 31 31 31 30 30 30 30 30 31 32 33 33 33 33 34 34 35 35 36 37 37 37 36 36 36 35 35 35 35 34 34 34 34 34 33 32 32 32
Wind_Direction
203 206 202 205 208 219 222 219 238 249 273 290 306 324 347 3 3 2 354 1 0 1 4 6 10 11 11 10 8 8 6 5 4 2 1 358 356 358 359 358 355 353 352 351
208 210 209 212 217 228 230 218 233 260 267 286 301 313 323 335 341 348 358 2 5 4 2 2 3 2 2 360 356 357 358 355 353 351 351 350 352 349 347 346 347 347 346 348
211 210 210 219 230 235 230 230 239 244 249 277 286 289 299 314 323 329 341 345 341 346 351 352 353 355 355 351 347 347 348 344 344 345 344 340 340 337 338 338 339 340 339 340
212 211 214 221 231 239 230 233 240 244 244 257 271 279 287 298 313 324 330 329 334 336 339 343 343 345 347 345 342 341 339 337 338 338 339 339 334 331 331 331 333 334 333 332
215 221 226 226 231 234 237 236 237 243 252 257 265 273 279 281 296 315 329 330 332 329 327 330 329 333 338 337 335 332 329 333 333 333 334 334 332 330 330 331 330 327 326 327
218 223 227 225 228 233 243 238 233 238 246 255 258 263 267 279 290 302 316 319 320 315 315 318 318 328 325 328 328 324 326 329 327 328 330 330 329 328 326 326 326 326 323 321
223 226 225 223 225 228 239 245 243 241 240 253 251 255 263 272 281 292 302 308 312 308 310 316 314 318 318 324 327 323 322 320 318 321 322 324 323 322 321 320 320 322 320 317
229 226 225 223 225 233 238 246 251 250 246 251 252 256 265 270 278 289 297 300 304 305 306 311 308 309 314 316 317 317 316 313 314 316 319 321 318 319 319 319 318 316 316 315
232 229 228 228 230 234 240 244 249 253 252 255 258 258 263 268 276 287 294 292 301 301 304 308 309 312 310 309 309 312 313 312 310 310 311 314 314 314 314 316 315 313 312 310
232 229 223 226 230 233 239 243 248 250 253 257 260 259 259 274 281 289 296 293 294 303 305 306 304 308 310 308 307 305 307 308 308 307 308 309 309 308 308 310 312 311 309 308
233 231 225 225 230 233 233 239 246 251 252 255 260 260 265 272 276 282 290 291 296 298 299 301 308 308 309 308 309 308 305 304 303 305 306 307 307 306 305 305 305 305 305 304
234 233 229 231 234 236 240 243 248 254 254 255 259 262 263 271 274 279 286 289 297 298 297 298 301 304 305 305 304 305 304 303 303 303 303 305 305 304 303 302 302 302 301 300
233 234 233 233 234 236 240 244 246 251 255 255 259 261 262 268 276 281 288 290 293 296 296 299 300 297 298 299 300 300 300 300 302 303 302 301 302 302 302 301 300 299 299 298
234 236 238 237 235 236 239 241 241 246 251 254 258 261 260 267 275 280 284 285 287 291 295 297 299 298 298 296 298 299 299 303 301 302 301 298 297 299 299 299 298 297 297 296
236 237 240 240 238 237 238 240 240 245 251 256 259 262 263 265 270 275 280 281 283 287 292 294 295 295 294 296 298 299 301 303 302 300 299 296 296 297 297 297 297 297 296 295
240 240 241 242 244 242 241 240 242 244 249 253 257 260 265 268 271 271 275 279 281 282 286 291 292 293 295 296 298 299 300 300 301 299 297 297 296 296 297 296 296 296 296 295
242 244 246 248 248 246 244 242 242 246 250 254 258 263 267 269 270 271 275 279 283 285 286 289 291 292 294 294 295 297 299 300 300 299 298 297 297 295 295 296 295 294 294 294
246 247 249 250 249 250 251 248 247 248 252 256 259 262 265 270 271 272 275 279 282 285 285 287 289 290 291 293 294 297 298 297 297 297 296 295 293 293 295 296 295 294 293 292
246 249 252 254 254 254 252 249 248 249 252 256 258 261 264 268 271 273 275 278 277 279 282 284 286 288 290 292 294 296 297 296 296 296 296 294 292 291 294 295 295 294 294 294
244 249 252 254 254 254 253 254 252 252 254 257 259 262 264 267 269 273 275 277 274 276 279 282 284 287 289 291 294 295 294 294 296 297 294 293 294 293 294 294 293 293 292 292
242 247 250 253 255 257 257 257 257 258 259 259 260 262 264 267 270 273 275 275 275 276 279 282 283 285 286 289 291 293 293 293 294 295 296 294 293 294 294 294 295 293 293 292
243 247 249 252 255 258 259 260 260 263 263 263 261 263 265 267 270 271 273 275 275 277 279 282 283 284 286 288 289 291 291 291 292 293 294 294 293 293 293 293 294 293 292 291
248 250 252 254 259 262 261 261 261 261 263 264 265 267 266 269 273 273 274 276 275 278 279 282 283 285 287 287 289 290 290 290 291 292 293 293 293 292 293 293 294 293 292 292
251 252 255 258 259 262 263 262 261 261 264 266 269 270 272 275 275 276 275 276 277 280 281 282 284 285 286 287 287 288 288 288 290 291 291 291 292 292 291 292 293 293 292 292
251 254 258 261 263 264 262 263 263 263 265 267 271 273 275 276 276 276 277 277 278 280 282 283 284 285 286 286 286 286 287 287 288 289 290 290 289 290 291 291 291 291 291 290
254 257 260 261 261 263 264 264 264 264 266 269 270 272 274 276 276 276 277 277 278 279 281 282 283 284 284 284 285 285 286 287 288 288 289 289 290 290 290 290 290 291 290 289